User: anonymous   Login
Location: Shell Point
(30.0571°N, 84.2896°W)
Time: 09:57:44
(UTC-04:00)
Language:

Meteor 2-19 Rocket - Orbit

View from above orbital plane
View from above orbital plane
View from above satellite
View from above satellite

Ground track
Ground track

The orbit data is extracted from the following two-line orbital elements,

1 20671U 90057B   15242.22053674  .00000031  00000-0  14011-4 0  9995
2 20671 082.5496 174.3195 0015462 007.6870 100.0382 13.84593297272150
Epoch (UTC): 30 August 2015 05:17:34
Eccentricity: 0.0015462
inclination: 82.5496°
perigee height: 936 km
apogee height: 959 km
right ascension of ascending node: 174.3195°
argument of perigee: 7.6870°
revolutions per day: 13.84593297
mean anomaly at epoch: 100.0382°
orbit number at epoch: 27215

The dashed part of the orbit path shows where the satellite is in the earth's shadow,  

DLR